Time,TemperatureF,DewpointF,PressureIn,WindDirection,WindDirectionDegrees,WindSpeedMPH,WindSpeedGustMPH,Humidity,HourlyPrecipIn,Conditions,Clouds,dailyrainin,SoftwareType,DateUTC
2015-09-01 00:02:00,75.0,72.1,30.07,SSE,162,0.0,0.0,91,0.00,,,0.00,meteobridge,2015-09-01 05:02:00,
2015-09-01 00:07:00,74.8,72.0,30.07,SSE,162,0.0,0.0,91,0.00,,,0.00,meteobridge,2015-09-01 05:07:00,
2015-09-01 00:12:00,74.7,71.8,30.07,SSE,162,0.0,0.0,91,0.00,,,0.00,meteobridge,2015-09-01 05:12:00,
2015-09-01 00:17:00,74.7,72.1,30.07,SSE,162,0.0,0.0,92,0.00,,,0.00,meteobridge,2015-09-01 05:17:00,
2015-09-01 00:22:00,74.5,72.0,30.07,SSE,162,0.0,0.0,92,0.00,,,0.00,meteobridge,2015-09-01 05:22:00,
2015-09-01 00:27:00,74.3,71.8,30.07,SSE,162,0.0,0.0,92,0.00,,,0.00,meteobridge,2015-09-01 05:27:00,
2015-09-01 00:32:00,74.1,71.6,30.07,SSE,162,0.0,0.0,92,0.00,,,0.00,meteobridge,2015-09-01 05:32:00,
2015-09-01 00:37:00,73.9,71.4,30.08,SSE,162,0.0,0.0,92,0.00,,,0.00,meteobridge,2015-09-01 05:37:00,
2015-09-01 00:42:00,73.9,71.8,30.07,SSE,162,0.0,0.0,93,0.00,,,0.00,meteobridge,2015-09-01 05:42:00,
2015-09-01 00:47:00,73.9,71.4,30.07,SSE,162,0.0,0.0,92,0.00,,,0.00,meteobridge,2015-09-01 05:47:00,
2015-09-01 00:52:00,73.8,71.6,30.07,SSE,162,0.0,0.0,93,0.00,,,0.00,meteobridge,2015-09-01 05:52:00,
2015-09-01 00:57:00,73.8,71.6,30.07,SSE,162,0.0,0.0,93,0.00,,,0.00,meteobridge,2015-09-01 05:57:00,
2015-09-01 01:02:00,73.6,71.4,30.07,SSE,162,0.0,0.0,93,0.00,,,0.00,meteobridge,2015-09-01 06:02:00,
2015-09-01 01:07:00,73.6,71.4,30.07,SSE,162,0.0,0.0,93,0.00,,,0.00,meteobridge,2015-09-01 06:07:00,
2015-09-01 01:12:00,73.6,71.4,30.07,SSE,162,0.0,0.0,93,0.00,,,0.00,meteobridge,2015-09-01 06:12:00,
2015-09-01 01:18:00,73.4,71.2,30.07,SSE,162,0.0,0.0,93,0.00,,,0.00,meteobridge,2015-09-01 06:18:00,
2015-09-01 01:23:00,73.2,71.1,30.07,SSE,162,0.0,0.0,93,0.00,,,0.00,meteobridge,2015-09-01 06:23:00,
2015-09-01 01:28:00,73.2,71.4,30.06,SSE,162,0.0,0.0,94,0.00,,,0.00,meteobridge,2015-09-01 06:28:00,
2015-09-01 01:33:00,73.0,71.2,30.06,SSE,162,0.0,0.0,94,0.00,,,0.00,meteobridge,2015-09-01 06:33:00,
2015-09-01 01:38:00,73.0,71.2,30.06,SSE,162,0.0,0.0,94,0.00,,,0.00,meteobridge,2015-09-01 06:38:00,
2015-09-01 01:43:00,72.9,71.1,30.06,SSE,162,0.0,0.0,94,0.00,,,0.00,meteobridge,2015-09-01 06:43:00,
2015-09-01 01:48:00,72.7,70.9,30.06,SSE,162,0.0,0.0,94,0.00,,,0.00,meteobridge,2015-09-01 06:48:00,
2015-09-01 01:53:00,72.7,70.9,30.06,SSE,162,0.0,0.0,94,0.00,,,0.00,meteobridge,2015-09-01 06:53:00,
2015-09-01 01:58:00,72.5,71.1,30.06,SSE,162,0.0,0.0,95,0.00,,,0.00,meteobridge,2015-09-01 06:58:00,
2015-09-01 02:03:00,72.3,70.5,30.05,SSE,162,0.0,0.0,94,0.00,,,0.00,meteobridge,2015-09-01 07:03:00,
2015-09-01 02:08:00,72.3,70.5,30.05,SSE,162,0.0,0.0,94,0.00,,,0.00,meteobridge,2015-09-01 07:08:00,
2015-09-01 02:13:00,72.1,70.3,30.06,SSE,162,0.0,0.0,94,0.00,,,0.00,meteobridge,2015-09-01 07:13:00,
2015-09-01 02:18:00,72.1,70.7,30.06,SSE,162,0.0,0.0,95,0.00,,,0.00,meteobridge,2015-09-01 07:18:00,
2015-09-01 02:23:00,72.1,70.3,30.06,SSE,162,0.0,0.0,94,0.00,,,0.00,meteobridge,2015-09-01 07:23:00,
2015-09-01 02:28:00,72.0,70.2,30.06,SSE,162,0.0,0.0,94,0.00,,,0.00,meteobridge,2015-09-01 07:28:00,
2015-09-01 02:33:00,71.8,70.3,30.06,SSE,162,0.0,0.0,95,0.00,,,0.00,meteobridge,2015-09-01 07:33:00,
2015-09-01 02:38:00,71.8,70.0,30.06,SSE,162,0.0,0.0,94,0.00,,,0.00,meteobridge,2015-09-01 07:38:00,
2015-09-01 02:43:00,71.6,70.2,30.05,SSE,162,0.0,0.0,95,0.00,,,0.00,meteobridge,2015-09-01 07:43:00,
2015-09-01 02:49:00,71.4,70.0,30.06,SSE,162,0.0,0.0,95,0.00,,,0.00,meteobridge,2015-09-01 07:49:00,
2015-09-01 02:54:00,71.6,70.2,30.06,SSE,162,0.0,0.0,95,0.00,,,0.00,meteobridge,2015-09-01 07:54:00,
2015-09-01 02:59:00,71.4,70.0,30.05,SSE,162,0.0,0.0,95,0.00,,,0.00,meteobridge,2015-09-01 07:59:00,
2015-09-01 03:04:00,71.4,70.0,30.05,SSE,162,0.0,0.0,95,0.00,,,0.00,meteobridge,2015-09-01 08:04:00,
2015-09-01 03:09:00,71.2,69.8,30.06,SSE,162,0.0,0.0,95,0.00,,,0.00,meteobridge,2015-09-01 08:09:00,